SB KEPS @ AMSAT $ORB14303.O Orbital Elements 14303.OSCAR
HR AMSAT ORBITAL ELEMENTS FOR OSCAR SATELLITES FROM WA5QGD FORT WORTH,TX October 30, 2014 BID: ORB14303.O TO ALL RADIO AMATEURS BT
Satellite: AO-07 Catalog number: 07530 Epoch time: 14302.91799772 Element set: 107 Inclination: 101.4899 deg RA of node: 280.3934 deg Eccentricity: 0.0012218 Arg of perigee: 033.4781 deg Mean anomaly: 356.3819 deg Mean motion: 12.53608464 rev/day Decay rate: -1.2e-07 rev/day^2 Epoch rev: 82840 Checksum: 303
Satellite: FO-29 Catalog number: 24278 Epoch time: 14303.49522175 Element set: 506 Inclination: 098.5161 deg RA of node: 298.6871 deg Eccentricity: 0.0349525 Arg of perigee: 306.6531 deg Mean anomaly: 223.4854 deg Mean motion: 13.53034466 rev/day Decay rate: 3.1e-07 rev/day^2 Epoch rev: 89896 Checksum: 332
Satellite: SO-33 Catalog number: 25509 Epoch time: 14302.92358626 Element set: 871 Inclination: 031.4332 deg RA of node: 116.8833 deg Eccentricity: 0.0349306 Arg of perigee: 214.9692 deg Mean anomaly: 302.5892 deg Mean motion: 14.29713181 rev/day Decay rate: 7.83e-06 rev/day^2 Epoch rev: 83644 Checksum: 317
Satellite: RS-22 Catalog number: 27939 Epoch time: 14303.51510465 Element set: 995 Inclination: 097.8215 deg RA of node: 111.0481 deg Eccentricity: 0.0013791 Arg of perigee: 042.8083 deg Mean anomaly: 353.7789 deg Mean motion: 14.65457633 rev/day Decay rate: 9.76e-06 rev/day^2 Epoch rev: 59254 Checksum: 332
Satellite: HO-68 Catalog number: 36122 Epoch time: 14303.58852907 Element set: 74 Inclination: 100.2320 deg RA of node: 351.2384 deg Eccentricity: 0.0006842 Arg of perigee: 287.1453 deg Mean anomaly: 239.7081 deg Mean motion: 13.16319707 rev/day Decay rate: -2.5e-07 rev/day^2 Epoch rev: 23424 Checksum: 280
Satellite: AO-73 Catalog number: 39444 Epoch time: 14302.76371146 Element set: 295 Inclination: 097.7617 deg RA of node: 008.7802 deg Eccentricity: 0.0061954 Arg of perigee: 164.9668 deg Mean anomaly: 195.3404 deg Mean motion: 14.78879988 rev/day Decay rate: 3.609e-05 rev/day^2 Epoch rev: 4935 Checksum: 365
Satellite: EO-79 Catalog number: 40025 Epoch time: 14303.75271613 Element set: 391 Inclination: 097.9686 deg RA of node: 198.6087 deg Eccentricity: 0.0011802 Arg of perigee: 213.5741 deg Mean anomaly: 146.4760 deg Mean motion: 14.85750623 rev/day Decay rate: 4.569e-05 rev/day^2 Epoch rev: 1971 Checksum: 322
/EX SB KEPS @ AMSAT $ORB14303.D Orbital Elements 14303.MICROS
HR AMSAT ORBITAL ELEMENTS FOR THE MICROSATS FROM WA5QGD FORT WORTH,TX October 30, 2014 BID: ORB14303.D TO ALL RADIO AMATEURS BT
Satellite: UO-11 Catalog number: 14781 Epoch time: 14303.22907983 Element set: 650 Inclination: 097.8362 deg RA of node: 000.6164 deg Eccentricity: 0.0010134 Arg of perigee: 101.9818 deg Mean anomaly: 258.2532 deg Mean motion: 14.81849994 rev/day Decay rate: 1.413e-05 rev/day^2 Epoch rev: 64796 Checksum: 308
Satellite: AO-16 Catalog number: 20439 Epoch time: 14302.85097920 Element set: 160 Inclination: 098.5180 deg RA of node: 237.7124 deg Eccentricity: 0.0012010 Arg of perigee: 119.6222 deg Mean anomaly: 310.1057 deg Mean motion: 14.32414948 rev/day Decay rate: 2.28e-06 rev/day^2 Epoch rev: 29376 Checksum: 272
Satellite: LO-19 Catalog number: 20442 Epoch time: 14302.80463141 Element set: 95 Inclination: 098.4892 deg RA of node: 237.9165 deg Eccentricity: 0.0013015 Arg of perigee: 109.5853 deg Mean anomaly: 250.6738 deg Mean motion: 14.32613581 rev/day Decay rate: 2.17e-06 rev/day^2 Epoch rev: 29395 Checksum: 300
Satellite: AO-27 Catalog number: 22825 Epoch time: 14303.47783606 Element set: 808 Inclination: 098.6780 deg RA of node: 248.9303 deg Eccentricity: 0.0007356 Arg of perigee: 258.6672 deg Mean anomaly: 215.4002 deg Mean motion: 14.29770998 rev/day Decay rate: 2.67e-06 rev/day^2 Epoch rev: 10011 Checksum: 318
Satellite: IO-26 Catalog number: 22826 Epoch time: 14302.93264082 Element set: 565 Inclination: 098.6721 deg RA of node: 248.5857 deg Eccentricity: 0.0007933 Arg of perigee: 251.9778 deg Mean anomaly: 108.0540 deg Mean motion: 14.30076588 rev/day Decay rate: 2.67e-06 rev/day^2 Epoch rev: 10017 Checksum: 315
Satellite: GO-32 Catalog number: 25397 Epoch time: 14302.83792331 Element set: 486 Inclination: 098.4874 deg RA of node: 255.9181 deg Eccentricity: 0.0000129 Arg of perigee: 241.0486 deg Mean anomaly: 171.2511 deg Mean motion: 14.23476536 rev/day Decay rate: 1.13e-06 rev/day^2 Epoch rev: 84702 Checksum: 298
Satellite: NO-44 Catalog number: 26931 Epoch time: 14302.73774462 Element set: 740 Inclination: 067.0535 deg RA of node: 051.4780 deg Eccentricity: 0.0007506 Arg of perigee: 273.4730 deg Mean anomaly: 086.5512 deg Mean motion: 14.30178863 rev/day Decay rate: 2.14e-06 rev/day^2 Epoch rev: 68284 Checksum: 298
Satellite: SO-50 Catalog number: 27607 Epoch time: 14303.17699820 Element set: 561 Inclination: 064.5565 deg RA of node: 180.7726 deg Eccentricity: 0.0063563 Arg of perigee: 335.6788 deg Mean anomaly: 024.1316 deg Mean motion: 14.74070764 rev/day Decay rate: 1.801e-05 rev/day^2 Epoch rev: 63737 Checksum: 319
Satellite: CO-55 Catalog number: 27844 Epoch time: 14302.98908076 Element set: 58 Inclination: 098.6984 deg RA of node: 309.8263 deg Eccentricity: 0.0008879 Arg of perigee: 241.8778 deg Mean anomaly: 171.0433 deg Mean motion: 14.21598294 rev/day Decay rate: 4.69e-06 rev/day^2 Epoch rev: 58773 Checksum: 372
Satellite: CO-57 Catalog number: 27848 Epoch time: 14303.02593829 Element set: 1 Inclination: 098.7080 deg RA of node: 309.6473 deg Eccentricity: 0.0008719 Arg of perigee: 249.3476 deg Mean anomaly: 173.3113 deg Mean motion: 14.21273912 rev/day Decay rate: 3.93e-06 rev/day^2 Epoch rev: 58765 Checksum: 322
Satellite: AO-51 Catalog number: 28375 Epoch time: 14302.80459614 Element set: 980 Inclination: 098.2656 deg RA of node: 245.2252 deg Eccentricity: 0.0081795 Arg of perigee: 305.9651 deg Mean anomaly: 053.3972 deg Mean motion: 14.41478212 rev/day Decay rate: 4.27e-06 rev/day^2 Epoch rev: 54329 Checksum: 321
Satellite: CP3 Catalog number: 31129 Epoch time: 14302.89734635 Element set: 886 Inclination: 097.9507 deg RA of node: 274.1869 deg Eccentricity: 0.0096707 Arg of perigee: 312.0170 deg Mean anomaly: 099.5945 deg Mean motion: 14.55050907 rev/day Decay rate: 2.530e-05 rev/day^2 Epoch rev: 39962 Checksum: 337
Satellite: CO-65 Catalog number: 32785 Epoch time: 14303.21668172 Element set: 103 Inclination: 097.6836 deg RA of node: 349.9836 deg Eccentricity: 0.0015269 Arg of perigee: 104.1711 deg Mean anomaly: 300.2029 deg Mean motion: 14.85763247 rev/day Decay rate: 3.996e-05 rev/day^2 Epoch rev: 35207 Checksum: 319
Satellite: PRISM Catalog number: 33493 Epoch time: 14303.70145694 Element set: 439 Inclination: 098.2549 deg RA of node: 125.2631 deg Eccentricity: 0.0017578 Arg of perigee: 004.8322 deg Mean anomaly: 125.6548 deg Mean motion: 14.90548423 rev/day Decay rate: 4.425e-05 rev/day^2 Epoch rev: 31235 Checksum: 297
Satellite: SOHLA-1 Catalog number: 33496 Epoch time: 14302.83145047 Element set: 501 Inclination: 098.1861 deg RA of node: 064.2300 deg Eccentricity: 0.0006890 Arg of perigee: 165.9664 deg Mean anomaly: 346.7456 deg Mean motion: 14.70976535 rev/day Decay rate: 7.88e-06 rev/day^2 Epoch rev: 30930 Checksum: 312
Satellite: TISAT-1 Catalog number: 36799 Epoch time: 14303.72925353 Element set: 683 Inclination: 098.0180 deg RA of node: 036.7976 deg Eccentricity: 0.0012780 Arg of perigee: 236.2545 deg Mean anomaly: 277.4063 deg Mean motion: 14.86471677 rev/day Decay rate: 3.485e-05 rev/day^2 Epoch rev: 23284 Checksum: 336
Satellite: STUDSAT Catalog number: 36801 Epoch time: 14302.94171906 Element set: 920 Inclination: 098.0438 deg RA of node: 046.9436 deg Eccentricity: 0.0006569 Arg of perigee: 203.1562 deg Mean anomaly: 291.6965 deg Mean motion: 15.00295830 rev/day Decay rate: 2.9025e-04 rev/day^2 Epoch rev: 23330 Checksum: 292
Satellite: ALMASAT-1 Catalog number: 38078 Epoch time: 14303.12929521 Element set: 197 Inclination: 069.4655 deg RA of node: 092.0644 deg Eccentricity: 0.0564736 Arg of perigee: 212.1339 deg Mean anomaly: 274.6374 deg Mean motion: 14.57821836 rev/day Decay rate: 6.7695e-04 rev/day^2 Epoch rev: 14124 Checksum: 329
Satellite: XATCOBEO Catalog number: 38082 Epoch time: 14243.34478676 Element set: 563 Inclination: 069.3815 deg RA of node: 097.0364 deg Eccentricity: 0.0033293 Arg of perigee: 225.1799 deg Mean anomaly: 135.4582 deg Mean motion: 16.41261006 rev/day Decay rate: 1.3583328e-01 rev/day^2 Epoch rev: 13623 Checksum: 317
Satellite: CUBEBUG-1 Catalog number: 39153 Epoch time: 14303.22659320 Element set: 607 Inclination: 098.0348 deg RA of node: 023.2259 deg Eccentricity: 0.0016505 Arg of perigee: 275.7093 deg Mean anomaly: 084.2236 deg Mean motion: 14.78145957 rev/day Decay rate: 3.696e-05 rev/day^2 Epoch rev: 8149 Checksum: 311
Satellite: ESTCUBE-1 Catalog number: 39161 Epoch time: 14303.66593845 Element set: 616 Inclination: 098.0909 deg RA of node: 023.5323 deg Eccentricity: 0.0009087 Arg of perigee: 331.0451 deg Mean anomaly: 029.0250 deg Mean motion: 14.70339044 rev/day Decay rate: 1.488e-05 rev/day^2 Epoch rev: 7949 Checksum: 297
Satellite: DUCHIFAT-1 Catalog number: 40021 Epoch time: 14303.67070005 Element set: 394 Inclination: 097.9685 deg RA of node: 198.5887 deg Eccentricity: 0.0012769 Arg of perigee: 214.2771 deg Mean anomaly: 145.7708 deg Mean motion: 14.86043182 rev/day Decay rate: 6.332e-05 rev/day^2 Epoch rev: 1969 Checksum: 316
Satellite: NANOSATCBR1 Catalog number: 40024 Epoch time: 14303.27698177 Element set: 385 Inclination: 097.9660 deg RA of node: 198.1429 deg Eccentricity: 0.0011258 Arg of perigee: 213.8385 deg Mean anomaly: 146.2139 deg Mean motion: 14.85868859 rev/day Decay rate: 5.483e-05 rev/day^2 Epoch rev: 1963 Checksum: 338
Satellite: DTUSAT-2 Catalog number: 40030 Epoch time: 14303.65114470 Element set: 383 Inclination: 097.9649 deg RA of node: 198.4165 deg Eccentricity: 0.0011337 Arg of perigee: 203.6392 deg Mean anomaly: 156.4311 deg Mean motion: 14.85373406 rev/day Decay rate: 4.668e-05 rev/day^2 Epoch rev: 1969 Checksum: 300
